Home > Weather > Fujairah > Past weeks

Flag for United Arab Emirates Weather for the Past 2 Weeks in Fujairah, Fujairah, United Arab Emirates

Now
66 °F

Clear.


Feels Like: 66 °F
Forecast: 59 / 74 °F
Wind: 15 mph from Northwest

Location: Fujairah

Current Time: Feb 12, 2016 at 4:22:52 AM

Latest Report: Feb 12, 2016 at 3:00 AM


Visibility: 4 mi

Pressure: 29.95 "Hg

Humidity: 64%

Dew point: 54 °F

Location of FujairahLocation

Historic Weather in Fujairah — Graph

°F

Fujairah Temperature Yesterday

Maximum temperature yesterday: 75 °F (at 1:00 PM)
Minimum temperature yesterday: 64 °F (at 3:00 AM)
Average temperature yesterday: 70 °F

High & Low Weather Summary for the Past Weeks

 TemperatureHumidityPressure
High82 °F (Feb 9, 2:00 PM)83% (Jan 28, 2:00 AM)30.24 "Hg (Jan 28, 2:00 AM)
Low61 °F (Jan 31, 4:00 AM)17% (Feb 9, 11:00 AM)29.89 "Hg (Jan 28, 4:00 AM)
Average70 °F50%30.07 "Hg
* Reported Jan 28 1:00 AM — Feb 12 1:00 AM, Fujairah, Weather by CustomWeather, © 2016

Note: Actual official high and low records may vary slightly from our data, if they occured in-between our weather recording intervals... More about our weather records

Advertising

Fujairah Weather History for the Previous 24 Hours

 ConditionsComfort  
Time TempWeatherWind HumidityBarometerVisibility
1:00 AM
Fri, Feb 12
66 °FClear.15 mph64%29.95 "Hg4 mi
12:00 AM68 °FClear.14 mph64%29.98 "Hg4 mi
11:00 PM
Thu, Feb 11
70 °FClear.13 mph64%29.98 "Hg4 mi
10:00 PM70 °FClear.14 mph64%29.98 "Hg4 mi
9:00 PM72 °FClear.16 mph57%29.98 "Hg4 mi
8:00 PM73 °FPassing clouds.13 mph57%29.95 "Hg4 mi
7:00 PM72 °FPassing clouds.3 mph61%29.95 "Hg4 mi
6:00 PM73 °FPassing clouds.5 mph57%29.92 "Hg4 mi
5:00 PM73 °FClear.7 mph57%29.92 "Hg4 mi
3:00 PM75 °FClear.10 mph47%29.92 "Hg4 mi
2:00 PM75 °FClear.12 mph44%29.92 "Hg4 mi
1:00 PM75 °FClear.12 mph47%29.95 "Hg4 mi
12:00 PM73 °FPassing clouds.9 mph53%29.98 "Hg4 mi
11:00 AM73 °FScattered clouds.7 mph57%30.04 "Hg4 mi
10:00 AM72 °FPassing clouds.6 mph61%30.04 "Hg4 mi
9:00 AM70 °FClear.2 mph69%30.01 "Hg4 mi
8:00 AM64 °FClear.7 mph78%30.01 "Hg4 mi
7:00 AM64 °FPassing clouds.7 mph78%30.01 "Hg4 mi
6:00 AM64 °FHaze.8 mph83%29.98 "Hg3 mi
5:00 AM64 °FClear.8 mph83%29.98 "Hg4 mi
4:00 AM64 °FClear.5 mph78%29.98 "Hg4 mi
Weather by CustomWeather, © 2016

See weather overviewHow to use our weather pages